1529463600.55,24408,18.88,74726.3,5.83,5.11,2.81,0,*77
1529463601.8,24409,18.88,74726.8,5.85,5.05,2.77,0,*7C
1529463602.98,24410,18.88,74724.3,5.83,5.11,2.65,0,*74
1529463604.19,24411,18.88,74720.5,5.85,5.11,2.69,0,*7F
1529463605.44,24412,18.88,74722.3,5.85,5.05,2.77,0,*76
1529463606.69,24413,18.88,74724.8,5.85,5.05,2.77,0,*77
1529463607.91,24414,18.88,74720.8,5.85,5.05,2.91,0,*78
1529463609.11,24415,18.88,74730.5,5.83,5.11,2.81,0,*7B
1529463610.34,24416,18.88,74724.8,5.85,5.11,2.81,0,*7E
1529463611.56,24417,18.88,74726.0,5.85,5.11,2.81,0,*7F
1529463612.75,24418,18.88,74726.8,5.83,5.11,2.69,0,*70
1529463613.98,24419,18.88,74724.8,5.85,5.05,2.65,0,*7E
1529463615.2,24420,18.88,74726.5,5.85,5.11,2.55,0,*72
1529463616.42,24421,18.88,74726.0,5.85,5.05,2.35,0,*70
1529463617.61,24422,18.88,74726.8,5.83,5.05,2.35,0,*75
1529463618.82,24423,18.88,74726.5,5.83,5.11,2.43,0,*70
1529463620.03,24424,18.88,74728.0,5.85,5.11,2.55,0,*76
1529463621.23,24425,18.88,74726.5,5.83,5.11,2.47,0,*72
1529463622.47,24426,18.88,74726.8,5.85,5.05,2.55,0,*71
1529463623.67,24427,18.88,74724.5,5.83,5.11,2.59,0,*7F
1529463624.92,24428,18.88,74726.3,5.85,5.05,2.43,0,*78
1529463626.14,24429,18.88,74724.8,5.85,5.11,2.25,0,*7C
1529463627.38,24430,18.88,74726.5,5.85,5.05,2.21,0,*75
1529463628.63,24431,18.88,74728.5,5.85,5.05,2.25,0,*70
1529463629.86,24432,18.88,74724.0,5.83,5.05,2.13,0,*70
1529463631.07,24433,18.88,74730.8,5.85,5.11,2.05,0,*75
1529463632.29,24434,18.88,74726.5,5.85,5.11,2.05,0,*72
1529463633.52,24435,18.88,74724.0,5.89,5.07,2.01,0,*7C
1529463634.78,24436,18.88,74726.3,5.89,4.97,1.85,0,*78
1529463636.02,24437,18.88,74726.3,5.89,5.05,1.89,0,*7F
1529463637.28,24438,18.88,74724.5,5.89,4.97,1.63,0,*7E
1529463638.49,24439,18.88,74724.0,5.85,4.81,1.51,0,*75
1529463639.73,24440,18.88,74720.0,5.85,4.79,1.37,0,*7C
1529463640.98,24441,18.88,74724.3,5.85,4.79,1.37,0,*7D
1529463642.16,24442,18.88,74722.8,5.85,4.81,1.41,0,*78
1529463643.39,24443,18.88,74720.8,5.83,4.71,1.25,0,*72
1529463644.64,24444,18.88,74726.3,5.85,4.71,1.33,0,*74
1529463645.89,24445,18.88,74722.3,5.85,4.71,1.21,0,*76
1529463647.12,24446,18.88,74720.0,5.83,4.71,1.21,0,*73
1529463648.37,24447,18.88,74720.3,5.85,4.71,1.25,0,*70
1529463649.6,24448,18.88,74722.3,5.83,4.71,1.25,0,*79
1529463650.82,24449,18.88,74722.3,5.83,4.59,1.13,0,*77
1529463652.07,24450,18.88,74720.8,5.85,4.67,1.21,0,*75
1529463653.29,24451,18.88,74726.8,5.83,4.67,1.25,0,*76
1529463654.51,24452,18.88,74722.3,5.83,4.59,1.25,0,*78
1529463655.74,24453,18.88,74726.8,5.83,4.59,1.33,0,*7E
1529463656.99,24454,18.88,74726.0,5.85,4.67,1.37,0,*76
1529463658.21,24455,18.88,74724.8,5.83,4.67,1.37,0,*71
1529463659.44,24456,18.88,74724.0,5.83,4.67,1.33,0,*76
1529463660.63,24457,18.88,74730.0,5.83,4.71,1.41,0,*75
1529463661.87,24458,18.88,74724.5,5.81,4.63,1.47,0,*7D
1529463663.11,24459,18.88,74728.8,5.81,4.79,1.59,0,*78
1529463664.33,24460,18.88,74730.8,5.83,4.71,1.71,0,*72
1529463665.56,24461,18.88,74726.0,5.83,4.79,1.85,0,*70
1529463666.76,24462,18.88,74726.5,5.79,4.75,1.83,0,*7C
1529463667.98,24463,18.88,74724.8,5.79,4.75,2.17,0,*73
1529463669.19,24464,18.88,74722.3,5.81,4.67,2.31,0,*74
1529463670.42,24465,18.88,74730.5,5.81,4.75,2.61,0,*73
1529463671.64,24466,18.88,74720.5,5.81,4.85,2.89,0,*79
1529463672.84,24467,18.88,74722.3,5.81,4.85,2.99,0,*79
1529463674.05,24468,18.88,74718.0,5.81,4.85,3.23,0,*76
1529463675.3,24469,18.88,74716.8,5.81,4.97,3.33,0,*75
1529463676.47,24470,18.88,74718.5,5.79,4.89,3.25,0,*72
1529463677.69,24471,18.88,74718.8,5.81,4.97,3.25,0,*7B
1529463678.94,24472,18.88,74714.5,5.81,5.01,3.11,0,*71
1529463680.13,24473,18.88,74720.0,5.81,5.07,2.99,0,*77
1529463681.38,24474,18.88,74718.8,5.81,5.01,3.03,0,*74
1529463682.57,24475,18.88,74722.0,5.81,5.07,2.99,0,*71
1529463683.82,24476,18.88,74716.3,5.81,5.01,2.77,0,*74
1529463685.04,24477,18.88,74716.5,5.81,5.07,2.73,0,*77
1529463686.24,24478,18.88,74716.3,5.83,5.11,2.55,0,*79
1529463687.46,24479,18.88,74722.3,5.83,5.05,2.55,0,*7D
1529463688.66,24480,18.88,74722.0,5.83,5.11,2.43,0,*79
1529463689.86,24481,18.88,74722.0,5.83,5.11,2.43,0,*78
1529463691.03,24482,18.88,74726.3,5.83,5.11,2.35,0,*7A
1529463692.28,24483,18.88,74722.5,5.85,5.05,2.25,0,*79
1529463693.48,24484,18.88,74718.3,5.83,5.11,2.13,0,*78
1529463694.71,24485,18.88,74720.8,5.83,5.05,2.25,0,*79
1529463695.94,24486,18.88,74716.8,5.83,4.93,2.13,0,*71
1529463697.16,24487,18.88,74724.3,5.83,4.93,1.85,0,*7C
1529463698.41,24488,18.88,74720.8,5.85,5.01,1.71,0,*74
1529463699.63,24489,18.88,74720.8,5.85,5.01,1.83,0,*78
1529463700.86,24490,18.88,74722.0,5.83,5.01,1.85,0,*70
1529463702.08,24491,18.88,74718.5,5.83,5.01,1.63,0,*79
1529463703.3,24492,18.88,74718.5,5.85,4.89,1.63,0,*7D
1529463704.49,24493,18.88,74722.5,5.83,4.89,1.51,0,*7B
1529463705.72,24494,18.88,74718.8,5.83,4.79,1.13,0,*75
1529463706.91,24495,18.88,74722.3,5.83,4.79,1.01,0,*77
1529463708.16,24496,18.88,74718.8,5.85,4.59,0.91,0,*48
1529463709.37,24497,18.88,74716.0,5.85,4.57,0.79,0,*41
1529463710.56,24498,18.88,74712.0,5.83,4.49,0.55,0,*49
1529463711.77,24499,18.88,74718.8,5.85,4.45,0.63,0,*47
1529463712.96,24500,18.88,74716.8,5.83,4.49,0.63,0,*4C
1529463714.16,24501,18.88,74718.0,5.83,4.45,0.55,0,*44
1529463715.38,24502,18.88,74716.8,5.83,4.31,0.37,0,*40
1529463716.6,24503,18.88,74712.3,5.81,4.19,0.21,0,*4E
1529463717.81,24504,18.88,74720.8,5.81,4.19,0.25,0,*4D
1529463719.03,24505,18.88,74716.5,5.79,4.31,0.33,0,*46
1529463720.22,24506,18.88,74718.0,5.79,4.27,0.25,0,*45
1529463721.44,24507,18.88,74718.5,5.79,4.31,0.33,0,*44
1529463722.63,24508,18.88,74720.3,5.79,4.41,0.37,0,*48
1529463723.82,24509,18.88,74720.3,5.81,4.41,0.43,0,*4D
1529463725.03,24510,18.88,74716.3,5.81,4.41,0.37,0,*46
1529463726.22,24511,18.88,74718.8,5.79,4.41,0.37,0,*40
1529463727.39,24512,18.88,74720.0,5.79,4.41,0.43,0,*40
1529463728.59,24513,18.88,74722.3,5.79,4.53,0.51,0,*41
1529463729.78,24514,18.88,74722.5,5.79,4.57,0.59,0,*4A
1529463730.97,24515,18.88,74720.5,5.79,4.57,0.59,0,*4B
1529463732.17,24516,18.88,74722.3,5.79,4.57,0.47,0,*47
1529463733.36,24517,18.88,74724.5,5.79,4.45,0.47,0,*45
1529463734.57,24518,18.88,74720.0,5.77,4.41,0.33,0,*43
1529463735.78,24519,18.88,74720.5,5.77,4.49,0.33,0,*4A
1529463736.99,24520,18.88,74720.3,5.77,4.41,0.33,0,*48
1529463738.18,24521,18.88,74716.8,5.75,4.33,0.13,0,*4C
1529463739.39,24522,18.88,74716.3,5.77,4.37,0.17,0,*4D
1529463740.61,24523,18.88,74720.8,5.77,4.41,0.33,0,*4B
1529463741.82,24524,18.88,74720.3,5.77,4.41,0.29,0,*47
1529463743.03,24525,18.88,74718.8,5.77,4.49,0.41,0,*40
1529463744.23,24526,18.88,74716.8,5.77,4.49,0.41,0,*43
1529463745.45,24527,18.88,74714.8,5.77,4.49,0.47,0,*44
1529463746.63,24528,18.88,74716.5,5.75,4.49,0.67,0,*4B
1529463747.85,24529,18.88,74714.0,5.79,4.63,0.83,0,*44
1529463749.09,24530,18.88,74724.8,5.77,4.71,0.71,0,*4C
1529463750.33,24531,18.88,74712.3,5.77,4.71,0.67,0,*4A
1529463751.58,24532,18.88,74716.5,5.77,4.71,0.79,0,*46
1529463752.8,24533,18.88,74718.3,5.75,4.79,0.75,0,*41
1529463754.04,24534,18.88,74720.5,5.77,4.75,0.71,0,*4C
1529463755.22,24535,18.88,74722.8,5.75,4.81,0.79,0,*4C
1529463756.43,24536,18.88,74726.5,5.77,4.85,0.95,0,*4B
1529463757.64,24537,18.88,74720.8,5.77,4.85,0.95,0,*4A
1529463758.85,24538,18.88,74718.8,5.77,4.81,0.71,0,*4B
1529463760.05,24539,18.88,74726.0,5.75,4.67,0.43,0,*41
1529463761.29,24540,18.88,74724.0,5.77,4.75,0.47,0,*4A
1529463762.51,24541,18.88,74728.5,5.75,4.79,0.51,0,*42
1529463763.72,24542,18.88,74722.0,5.77,4.85,0.59,0,*48
1529463764.94,24543,18.88,74728.8,5.77,4.81,0.47,0,*42
1529463766.15,24544,18.88,74726.5,5.77,4.81,0.55,0,*46
1529463767.4,24545,18.88,74726.0,5.77,4.75,0.55,0,*4C
1529463768.61,24546,18.88,74724.8,5.77,4.85,0.47,0,*43
1529463769.81,24547,18.88,74730.0,5.79,4.89,0.51,0,*47
1529463771.0,24548,18.88,74734.5,5.79,4.97,0.43,0,*44
1529463772.22,24549,18.88,74734.3,5.79,4.67,0.13,0,*4F
1529463773.41,24550,18.88,74728.3,5.79,4.63,0.09,0,*78
1529463774.57,24551,18.88,74730.0,5.79,4.57,0.01,0,*76
1529463775.79,24552,18.88,74728.3,5.79,4.75,0.13,0,*46
1529463776.95,24553,18.88,74728.5,5.79,4.57,0.01,0,*74
1529463778.12,24554,18.88,74728.5,5.79,4.45,-0.03,0,*5F
1529463779.31,24555,18.88,74730.8,5.79,4.45,-0.23,0,*6C
1529463780.49,24556,18.88,74730.5,5.79,4.33,-0.37,0,*6B
1529463781.69,24557,18.88,74728.8,5.77,4.27,-0.33,0,*65
1529463782.89,24558,18.88,74726.0,5.75,4.33,-0.23,0,*6C
1529463784.05,24559,18.88,74726.3,5.75,4.45,0.05,0,*75
1529463785.26,24560,18.88,74728.3,5.77,4.49,0.17,0,*42
1529463786.51,24561,18.88,74728.5,5.77,4.59,0.59,0,*48
1529463787.75,24562,18.88,74720.8,5.77,4.59,0.83,0,*4C
1529463788.99,24563,18.88,74724.8,5.77,4.75,1.25,0,*7E
1529463790.22,24564,18.88,74730.5,5.75,4.71,1.29,0,*73
1529463791.45,24565,18.88,74732.3,5.77,4.71,1.75,0,*79
1529463792.66,24566,18.88,74726.8,5.75,4.79,2.47,0,*72
1529463793.91,24567,18.88,74728.5,5.77,4.93,3.07,0,*70
1529463795.16,24568,18.88,74724.8,5.77,4.97,3.41,0,*79
1529463796.41,24569,18.88,74724.8,5.77,5.05,3.71,0,*71
1529463797.61,24570,18.81,74720.0,5.77,5.07,3.81,0,*74
1529463798.82,24571,18.88,74724.0,5.77,5.07,3.79,0,*72
1529463800.05,24572,18.88,74726.5,5.77,4.97,3.81,0,*7E
1529463801.22,24573,18.88,74720.3,5.79,5.07,4.07,0,*70
1529463802.38,24574,18.88,74720.0,5.79,5.07,4.19,0,*78
1529463803.55,24575,18.88,74720.3,5.79,5.11,4.19,0,*7E
1529463804.74,24576,18.88,74722.3,5.81,5.11,4.19,0,*7A
1529463805.93,24577,18.88,74726.8,5.79,5.15,4.05,0,*75
1529463807.1,24578,18.88,74726.3,5.79,5.15,3.81,0,*71
1529463808.33,24579,18.88,74726.0,5.81,5.11,3.49,0,*77
1529463809.52,24580,18.88,74726.5,5.81,5.07,3.25,0,*7C
1529463810.74,24581,18.88,74726.8,5.81,5.07,3.11,0,*7A
1529463811.93,24582,18.88,74724.5,5.79,5.07,2.89,0,*7E
1529463813.13,24583,18.88,74728.5,5.81,5.07,2.65,0,*7A
1529463814.38,24584,18.88,74726.0,5.81,5.01,2.43,0,*7F
1529463815.6,24585,18.88,74726.0,5.81,5.07,2.39,0,*75
1529463816.82,24586,18.88,74726.8,5.81,5.07,2.39,0,*76
1529463818.04,24587,18.88,74726.3,5.81,5.07,2.51,0,*79
1529463819.29,24588,18.88,74726.8,5.81,5.01,2.43,0,*73
1529463820.48,24589,18.88,74726.8,5.79,5.01,2.31,0,*70
1529463821.67,24590,18.88,74720.5,5.81,4.89,2.31,0,*7E
1529463822.91,24591,18.88,74724.8,5.81,4.97,2.21,0,*71
1529463824.13,24592,18.88,74722.3,5.81,4.89,2.21,0,*7D
1529463825.36,24593,18.88,74718.5,5.83,4.93,2.13,0,*74
1529463826.58,24594,18.88,74724.3,5.81,4.89,2.01,0,*79
1529463827.79,24595,18.88,74724.3,5.81,4.85,1.93,0,*7C
1529463829.03,24596,18.88,74722.5,5.81,4.97,1.89,0,*77
1529463830.27,24597,18.88,74720.3,5.81,4.97,2.01,0,*75
1529463831.52,24598,18.88,74724.8,5.81,4.97,2.17,0,*7D
1529463832.74,24599,18.88,74722.5,5.81,4.97,2.31,0,*78
1529463833.99,24600,18.88,74724.0,5.81,5.01,2.51,0,*73
1529463835.24,24601,18.88,74726.3,5.81,5.01,2.51,0,*72
1529463836.45,24602,18.88,74726.3,5.83,5.01,2.65,0,*74
1529463837.7,24603,18.88,74728.8,5.85,5.05,2.81,0,*7D
1529463838.92,24604,18.88,74728.0,5.83,5.05,2.69,0,*7A
1529463840.12,24605,18.88,74726.0,5.83,5.11,2.59,0,*7D
1529463841.32,24606,18.88,74724.8,5.85,5.11,2.65,0,*77
1529463842.53,24607,18.88,74726.3,5.83,5.05,2.65,0,*75
1529463843.7,24608,18.88,74726.5,5.83,5.11,2.65,0,*7F
1529463844.9,24609,18.88,74722.3,5.83,5.11,2.77,0,*7D
1529463846.08,24610,18.88,74724.3,5.83,5.11,2.65,0,*76
1529463847.28,24611,18.88,74724.3,5.83,5.05,2.35,0,*77
1529463848.51,24612,18.88,74724.8,5.83,5.05,2.13,0,*70
1529463849.68,24613,18.88,74720.0,5.83,5.11,1.83,0,*7E
1529463850.9,24614,18.88,74722.5,5.83,5.05,1.71,0,*71
1529463852.12,24615,18.88,74724.3,5.83,4.93,1.59,0,*74
1529463853.37,24616,18.88,74720.5,5.85,4.93,1.63,0,*78
1529463854.61,24617,18.88,74722.5,5.85,4.93,1.63,0,*79
1529463855.83,24618,18.88,74718.0,5.85,4.89,1.37,0,*7C
1529463857.05,24619,18.88,74720.3,5.85,4.81,1.21,0,*72
1529463858.27,24620,18.88,74720.5,5.85,4.89,1.09,0,*7A
1529463859.44,24621,18.88,74722.0,5.83,4.89,1.01,0,*75
1529463860.63,24622,18.88,74722.3,5.85,4.81,0.97,0,*46
1529463861.86,24623,18.88,74722.3,5.83,4.71,0.91,0,*48
1529463863.08,24624,18.88,74722.0,5.83,4.59,0.79,0,*43
1529463864.28,24625,18.88,74720.8,5.85,4.49,0.79,0,*45
1529463865.49,24626,18.88,74720.0,5.85,4.49,0.67,0,*49
1529463866.7,24627,18.88,74720.0,5.85,4.49,0.63,0,*4C
1529463867.89,24628,18.81,74710.5,5.83,4.57,0.79,0,*41
1529463869.11,24629,18.88,74714.8,5.83,4.59,0.79,0,*4E
1529463870.35,24630,18.88,74720.8,5.85,4.59,0.87,0,*41
1529463871.59,24631,18.88,74718.3,5.85,4.59,0.67,0,*4E
1529463872.8,24632,18.88,74716.0,5.85,4.49,0.67,0,*4C
1529463874.0,24633,18.88,74722.0,5.85,4.49,0.67,0,*4D
1529463875.24,24634,18.88,74718.8,5.85,4.59,0.67,0,*4B
1529463876.45,24635,18.88,74720.0,5.85,4.49,0.55,0,*4A
1529463877.66,24636,18.88,74718.0,5.83,4.37,0.47,0,*45
1529463878.85,24637,18.88,74720.3,5.83,4.33,0.47,0,*40
1529463880.05,24638,18.88,74716.0,5.83,4.33,0.51,0,*48
1529463881.25,24639,18.88,74716.8,5.83,4.37,0.47,0,*4A
1529463882.47,24640,18.88,74720.3,5.83,4.31,0.41,0,*44
1529463883.69,24641,18.88,74724.3,5.81,4.27,0.33,0,*45
1529463884.88,24642,18.88,74720.3,5.79,4.27,0.37,0,*45
1529463886.11,24643,18.88,74720.0,5.83,4.31,0.47,0,*41
1529463887.31,24644,18.88,74716.3,5.83,4.37,0.55,0,*43
1529463888.5,24645,18.88,74722.8,5.83,4.45,0.67,0,*46
1529463889.71,24646,18.88,74720.0,5.81,4.41,0.71,0,*44
1529463890.93,24647,18.88,74720.5,5.81,4.41,0.71,0,*45
1529463892.17,24648,18.88,74720.5,5.81,4.31,0.71,0,*4D
1529463893.36,24649,18.88,74718.8,5.79,4.41,0.83,0,*41
1529463894.58,24650,18.88,74720.8,5.81,4.41,0.83,0,*4E
1529463895.79,24651,18.88,74724.5,5.81,4.45,0.95,0,*4C
1529463897.03,24652,18.88,74720.8,5.81,4.31,0.83,0,*4B
1529463898.23,24653,18.88,74720.0,5.79,4.27,0.83,0,*4A
1529463899.47,24654,18.88,74720.0,5.81,4.31,0.87,0,*49
1529463900.72,24655,18.88,74722.5,5.81,4.31,0.87,0,*48
1529463901.92,24656,18.88,74722.8,5.83,4.37,0.91,0,*48
1529463903.11,24657,18.88,74722.3,5.79,4.33,0.95,0,*4C
1529463904.28,24658,18.88,74722.3,5.79,4.41,1.05,0,*7E
1529463905.47,24659,18.88,74720.3,5.79,4.31,0.97,0,*42
1529463906.7,24660,18.88,74718.3,5.79,4.31,1.09,0,*7E
1529463907.89,24661,18.88,74720.0,5.79,4.41,1.17,0,*77
1529463909.09,24662,18.88,74716.5,5.79,4.41,1.21,0,*71
1529463910.31,24663,18.88,74718.3,5.81,4.41,1.21,0,*77
1529463911.51,24664,18.88,74722.3,5.79,4.41,1.21,0,*77
1529463912.71,24665,18.88,74718.8,5.79,4.33,1.21,0,*73
1529463913.92,24666,18.88,74722.3,5.81,4.41,1.29,0,*7A
1529463915.14,24667,18.88,74722.5,5.81,4.41,1.33,0,*70
1529463916.36,24668,18.88,74724.3,5.81,4.33,1.21,0,*79
1529463917.56,24669,18.88,74724.5,5.79,4.27,1.09,0,*70
1529463918.79,24670,18.81,74718.5,5.79,4.31,1.09,0,*7F
1529463920.01,24671,18.88,74716.5,5.81,4.27,1.09,0,*7E
1529463921.21,24672,18.88,74716.8,5.79,4.41,1.21,0,*70
1529463922.41,24673,18.88,74724.0,5.79,4.33,1.21,0,*74
1529463923.63,24674,18.81,74720.0,5.81,4.41,1.21,0,*71
1529463924.82,24675,18.88,74726.8,5.79,4.41,1.29,0,*7F
1529463926.02,24676,18.88,74728.0,5.79,4.41,1.29,0,*7C
1529463927.21,24677,18.81,74724.8,5.79,4.41,1.17,0,*70
1529463928.41,24678,18.88,74726.0,5.79,4.41,1.21,0,*7A
1529463929.63,24679,18.88,74724.3,5.81,4.33,1.21,0,*79
1529463930.83,24680,18.88,74726.5,5.79,4.41,1.21,0,*7D
1529463932.02,24681,18.88,74724.0,5.79,4.33,1.17,0,*7C
1529463933.24,24682,18.88,74720.8,5.81,4.41,1.17,0,*7D
1529463934.46,24683,18.88,74722.8,5.81,4.41,1.17,0,*7C
1529463935.67,24684,18.81,74720.3,5.81,4.41,1.17,0,*7B
1529463936.89,24685,18.88,74722.0,5.81,4.33,1.17,0,*7F
1529463938.09,24686,18.88,74724.3,5.79,4.41,1.17,0,*7E
1529463939.28,24687,18.88,74728.0,5.79,4.41,1.17,0,*7F
1529463940.5,24688,18.88,74724.3,5.81,4.41,1.17,0,*77
1529463941.71,24689,18.88,74726.5,5.81,4.41,1.17,0,*76
1529463942.91,24690,18.88,74726.0,5.79,4.45,1.21,0,*78
1529463944.1,24691,18.88,74724.3,5.79,4.45,1.29,0,*71
1529463945.32,24692,18.88,74720.5,5.81,4.45,1.21,0,*7D
1529463946.54,24693,18.88,74724.3,5.81,4.45,1.17,0,*79
1529463947.76,24694,18.88,74720.8,5.81,4.41,1.17,0,*7A
1529463948.97,24695,18.88,74726.0,5.81,4.41,1.29,0,*76
1529463950.19,24696,18.88,74726.5,5.81,4.41,1.29,0,*75
1529463951.41,24697,18.88,74724.3,5.81,4.45,1.21,0,*78
1529463952.63,24698,18.81,74724.8,5.81,4.53,1.21,0,*70
1529463953.85,24699,18.88,74728.0,5.81,4.53,1.21,0,*71
1529463955.08,24700,18.88,74724.8,5.81,4.53,1.21,0,*70
1529463956.29,24701,18.88,74726.8,5.81,4.57,1.17,0,*70
1529463957.51,24702,18.88,74726.0,5.81,4.45,1.09,0,*7F
1529463958.7,24703,18.88,74726.5,5.81,4.53,1.05,0,*75
1529463959.89,24704,18.88,74724.3,5.81,4.45,0.97,0,*4F
1529463961.1,24705,18.88,74726.5,5.81,4.53,0.95,0,*4B
1529463962.32,24706,18.88,74722.3,5.81,4.53,0.87,0,*4B
1529463963.53,24707,18.88,74724.5,5.81,4.45,0.87,0,*4D
1529463964.72,24708,18.88,74724.5,5.83,4.49,0.79,0,*4D
1529463965.91,24709,18.88,74722.3,5.83,4.49,0.75,0,*40
1529463967.1,24710,18.88,74724.3,5.83,4.45,0.67,0,*47
1529463968.3,24711,18.88,74722.0,5.83,4.45,0.55,0,*47
1529463969.51,24712,18.88,74720.8,5.81,4.45,0.51,0,*42
1529463970.71,24713,18.88,74722.0,5.83,4.49,0.47,0,*4A
1529463971.87,24714,18.88,74724.5,5.79,4.45,0.43,0,*40
1529463973.06,24715,18.88,74722.8,5.83,4.49,0.37,0,*4B
1529463974.25,24716,18.88,74724.5,5.83,4.49,0.29,0,*47
1529463975.47,24717,18.88,74728.0,5.81,4.53,0.21,0,*47
1529463976.66,24718,18.88,74726.3,5.83,4.57,0.13,0,*4F
1529463977.85,24719,18.88,74724.8,5.85,4.57,0.05,0,*7F
1529463979.01,24720,18.88,74726.8,5.83,4.57,0.01,0,*77
1529463980.21,24721,18.88,74726.0,5.83,4.49,-0.27,0,*60
1529463981.4,24722,18.81,74720.0,5.83,4.49,-0.27,0,*63
1529463982.58,24723,18.88,74724.8,5.83,4.57,-0.37,0,*6C
1529463983.76,24724,18.88,74724.0,5.83,4.49,-0.49,0,*6D
1529463984.92,24725,18.88,74724.3,5.83,4.49,-0.61,0,*66
1529463986.1,24726,18.88,74724.3,5.83,4.57,-0.81,0,*64
1529463987.29,24727,18.88,74726.3,5.83,4.45,-0.93,0,*65
1529463988.5,24728,18.88,74726.3,5.83,4.45,-1.05,0,*54
1529463989.71,24729,18.88,74726.8,5.81,4.45,-1.13,0,*50
1529463990.94,24730,18.88,74728.0,5.81,4.41,-1.35,0,*58
1529463992.17,24731,18.88,74728.0,5.81,4.41,-1.47,0,*5C
1529463993.34,24732,18.88,74728.3,5.83,4.45,-1.59,0,*56
1529463994.53,24733,18.81,74726.8,5.83,4.37,-1.79,0,*50
1529463995.73,24734,18.88,74726.5,5.83,4.45,-1.83,0,*57
1529463996.97,24735,18.88,74726.5,5.81,4.33,-1.99,0,*5E
1529463998.17,24736,18.88,74730.5,5.81,4.33,-2.15,0,*5A
1529463999.34,24737,18.88,74726.8,5.79,4.41,-2.27,0,*58
1529464000.54,24738,18.81,74726.5,5.81,4.33,-2.27,0,*55
1529464001.77,24739,18.81,74726.3,5.81,4.41,-2.47,0,*57
1529464002.98,24740,18.81,74722.8,5.79,4.41,-2.47,0,*5E
1529464004.2,24741,18.88,74726.8,5.81,4.33,-2.59,0,*52
1529464005.43,24742,18.88,74724.3,5.81,4.33,-2.63,0,*58
1529464006.66,24743,18.88,74728.5,5.81,4.41,-2.75,0,*5B
1529464007.86,24744,18.81,74724.8,5.81,4.41,-2.79,0,*50
1529464009.06,24745,18.88,74724.5,5.81,4.41,-2.87,0,*50
1529464010.25,24746,18.88,74726.8,5.81,4.45,-2.87,0,*57
1529464011.43,24747,18.88,74728.3,5.79,4.41,-3.03,0,*58
1529464012.63,24748,18.81,74722.5,5.81,4.41,-3.11,0,*53
1529464013.81,24749,18.88,74724.0,5.79,4.41,-2.99,0,*54
1529464014.98,24750,18.88,74726.8,5.79,4.41,-2.91,0,*54
1529464016.21,24751,18.88,74730.0,5.81,4.41,-2.75,0,*58
1529464017.41,24752,18.88,74728.8,5.81,4.53,-2.35,0,*5C
1529464018.61,24753,18.88,74730.8,5.79,4.45,-2.75,0,*59
1529464019.79,24754,18.81,74724.0,5.79,4.45,-2.99,0,*5C
1529464020.97,24755,18.88,74730.5,5.79,4.33,-3.35,0,*5B
1529464022.17,24756,18.88,74720.5,5.79,4.07,-3.67,0,*58
1529464023.36,24757,18.88,74722.0,5.79,4.19,-3.63,0,*52
1529464024.56,24758,18.88,74722.8,5.79,4.19,-3.47,0,*5B
1529464025.75,24759,18.88,74722.5,5.79,4.15,-3.63,0,*50
1529464026.95,24760,18.88,74720.0,5.79,4.07,-3.67,0,*5D
1529464028.14,24761,18.88,74718.5,5.79,4.19,-3.55,0,*52
1529464029.35,24762,18.81,74718.3,5.79,4.31,-3.39,0,*51
1529464030.55,24763,18.88,74720.3,5.79,4.31,-3.39,0,*50
1529464031.78,24764,18.81,74720.5,5.77,4.27,-3.51,0,*50
1529464033.0,24765,18.88,74722.0,5.77,4.31,-3.39,0,*58
1529464034.17,24766,18.81,74722.8,5.79,4.41,-3.15,0,*5C
1529464035.4,24767,18.88,74728.8,5.77,4.31,-3.19,0,*58
1529464036.6,24768,18.88,74728.5,5.75,4.31,-2.83,0,*57
1529464037.81,24769,18.88,74730.0,5.77,4.37,-2.79,0,*57
1529464039.0,24770,18.81,74730.0,5.77,4.41,-2.79,0,*5E
1529464040.2,24771,18.88,74728.8,5.77,4.41,-2.79,0,*5F
1529464041.4,24772,18.81,74730.0,5.77,4.41,-3.03,0,*50
1529464042.6,24773,18.88,74734.3,5.77,4.37,-3.15,0,*57
1529464043.8,24774,18.81,74728.5,5.77,4.37,-3.07,0,*53
1529464045.01,24775,18.88,74732.3,5.77,4.37,-3.15,0,*51
1529464046.21,24776,18.81,74730.8,5.77,4.37,-3.19,0,*5E
1529464047.38,24777,18.88,74730.0,5.79,4.33,-3.23,0,*5C
1529464048.55,24778,18.88,74730.0,5.75,4.19,-3.31,0,*54
1529464049.75,24779,18.88,74726.5,5.77,4.27,-3.15,0,*5C
1529464050.93,24780,18.88,74724.0,5.75,4.27,-3.07,0,*5B
1529464052.13,24781,18.88,74726.0,5.77,4.37,-2.91,0,*57
1529464053.3,24782,18.88,74728.3,5.79,4.41,-2.79,0,*5D
1529464054.48,24783,18.88,74730.3,5.79,4.41,-2.79,0,*5C
1529464055.68,24784,18.88,74728.5,5.77,4.37,-2.79,0,*54
1529464056.88,24785,18.88,74730.0,5.79,4.41,-2.67,0,*55
1529464058.09,24786,18.88,74728.3,5.79,4.41,-2.51,0,*53
1529464059.29,24787,18.88,74728.0,5.77,4.37,-2.43,0,*5E
1529464060.49,24788,18.88,74730.8,5.77,4.41,-2.27,0,*52
1529464061.72,24789,18.88,74730.3,5.77,4.41,-2.07,0,*51
1529464062.92,24790,18.88,74728.5,5.77,4.41,-2.19,0,*56
1529464064.12,24791,18.88,74730.0,5.77,4.41,-2.27,0,*5A
1529464065.35,24792,18.88,74730.0,5.77,4.31,-2.31,0,*59
1529464066.55,24793,18.88,74730.5,5.79,4.41,-2.11,0,*53
1529464067.76,24794,18.81,74728.5,5.79,4.33,-2.11,0,*51
1529464068.96,24795,18.81,74726.5,5.79,4.33,-1.99,0,*53
1529464070.2,24796,18.88,74730.8,5.77,4.37,-2.03,0,*5A
1529464071.45,24797,18.81,74730.0,5.77,4.31,-1.91,0,*55
1529464072.68,24798,18.88,74730.3,5.77,4.31,-1.79,0,*5C
1529464073.89,24799,18.88,74730.0,5.77,4.37,-1.67,0,*54
1529464075.1,24800,18.88,74730.0,5.77,4.37,-1.63,0,*5F
1529464076.33,24801,18.88,74730.0,5.77,4.31,-1.55,0,*5D
1529464077.53,24802,18.81,74728.3,5.77,4.37,-1.55,0,*58
1529464078.76,24803,18.81,74728.5,5.77,4.37,-1.39,0,*53
1529464079.94,24804,18.81,74728.8,5.79,4.41,-1.17,0,*57
1529464081.17,24805,18.88,74730.0,5.77,4.31,-1.29,0,*52
1529464082.37,24806,18.88,74730.3,5.77,4.37,-1.21,0,*5F
1529464083.57,24807,18.81,74728.3,5.79,4.41,-1.09,0,*5B
1529464084.77,24808,18.88,74730.3,5.79,4.33,-1.01,0,*59
1529464086.03,24809,18.88,74730.3,5.77,4.31,-1.05,0,*50
1529464087.28,24810,18.88,74728.8,5.77,4.31,-0.89,0,*6D
1529464088.48,24811,18.81,74726.0,5.77,4.37,-0.77,0,*6B
1529464089.71,24812,18.81,74726.8,5.77,4.31,-0.77,0,*6E
1529464090.89,24813,18.81,74726.5,5.79,4.41,-0.41,0,*63
1529464092.08,24814,18.88,74726.3,5.79,4.33,-0.23,0,*65
1529464093.26,24815,18.81,74720.8,5.79,4.33,-0.37,0,*61
1529464094.43,24816,18.88,74722.8,5.79,4.33,0.09,0,*72
1529464095.62,24817,18.88,74724.8,5.79,4.45,0.63,0,*4E
1529464096.82,24818,18.81,74720.5,5.79,4.53,0.83,0,*48
1529464098.03,24819,18.81,74722.5,5.79,4.63,0.83,0,*4A
1529464099.25,24820,18.88,74724.3,5.79,4.63,0.71,0,*4D
1529464100.49,24821,18.88,74724.3,5.81,4.63,0.83,0,*46
1529464101.73,24822,18.88,74726.0,5.77,4.59,0.79,0,*40
1529464102.93,24823,18.88,74724.5,5.79,4.63,1.05,0,*7C
1529464104.17,24824,18.81,74724.0,5.77,4.63,1.13,0,*72
1529464105.39,24825,18.88,74726.8,5.79,4.67,1.37,0,*7F
1529464106.63,24826,18.88,74728.0,5.81,4.63,1.43,0,*7C
1529464107.83,24827,18.81,74724.8,5.79,4.67,1.79,0,*77
1529464109.07,24828,18.88,74726.5,5.81,4.79,2.09,0,*74
1529464110.32,24829,18.81,74724.3,5.81,4.79,2.17,0,*7A
1529464111.56,24830,18.81,74724.0,5.81,4.79,2.17,0,*72
1529464112.78,24831,18.88,74726.0,5.81,4.79,2.27,0,*70
1529464113.97,24832,18.88,74726.0,5.81,4.85,2.27,0,*70
1529464115.17,24833,18.88,74726.3,5.79,4.85,2.43,0,*74
1529464116.39,24834,18.81,74722.3,5.81,4.85,2.51,0,*77
1529464117.64,24835,18.88,74724.0,5.81,4.79,2.73,0,*75
1529464118.86,24836,18.88,74730.0,5.81,4.85,2.89,0,*70
1529464120.08,24837,18.88,74730.0,5.81,4.89,3.03,0,*7E
1529464121.27,24838,18.88,74726.8,5.81,4.85,2.99,0,*7F
1529464122.47,24839,18.88,74722.5,5.81,4.85,2.99,0,*7E
1529464123.69,24840,18.81,74716.5,5.83,4.93,3.19,0,*7C
1529464124.89,24841,18.88,74720.0,5.81,4.89,3.25,0,*7B
1529464126.11,24842,18.88,74720.3,5.83,5.01,3.37,0,*78